Date,TemperatureHighF,TemperatureAvgF,TemperatureLowF,DewpointHighF,DewpointAvgF,DewpointLowF,HumidityHigh,HumidityAvg,HumidityLow,PressureMaxIn,PressureMinIn,WindSpeedMaxMPH,WindSpeedAvgMPH,GustSpeedMaxMPH,PrecipitationSumIn
2013-4-2,68.6,63.4,48.2,54.2,52.4,46.6,94,69,59,29.71,29.67,0,0,1,0.00
2013-4-3,54.0,54.0,54.0,51.7,51.7,51.7,92,92,92,29.42,29.42,0,0,0,0.00
2013-4-4,54.3,54.3,54.3,50.2,50.2,50.2,86,86,86,29.35,29.35,0,0,1,0.00
2013-4-5,50.2,50.2,50.2,49.9,49.9,49.9,99,99,99,29.32,29.32,0,0,0,0.02
2013-4-6,44.2,44.2,44.2,44.0,44.0,44.0,99,99,99,29.20,29.20,0,0,1,0.06
2013-4-7,41.9,41.9,41.9,40.3,40.3,40.3,94,94,94,29.46,29.46,0,0,0,0.00
2013-4-8,41.7,41.7,41.7,40.9,40.9,40.9,97,97,97,29.80,29.80,0,0,0,0.00
2013-4-9,51.4,51.4,51.4,47.4,47.4,47.4,86,86,86,29.75,29.75,0,0,0,0.00
2013-4-10,46.2,46.2,46.2,41.3,41.3,41.3,83,83,83,29.85,29.85,0,0,0,0.00
2013-4-11,41.2,41.2,41.2,37.3,37.3,37.3,86,86,86,29.69,29.69,0,0,0,0.00
2013-4-12,41.7,41.7,41.7,40.7,40.7,40.7,96,96,96,29.42,29.42,0,0,0,0.00
2013-4-13,55.2,48.9,42.6,39.7,39.1,38.4,85,70,56,29.58,29.54,0,0,6,0.00
2013-4-14,42.3,42.3,42.3,39.8,39.8,39.8,91,91,91,29.46,29.46,0,0,0,0.00
2013-4-15,44.4,44.4,44.4,42.2,42.2,42.2,92,92,92,29.67,29.67,0,0,1,0.00
2013-4-16,39.0,39.0,39.0,36.6,36.6,36.6,91,91,91,29.91,29.91,0,0,0,0.00
2013-4-17,47.7,47.7,47.7,42.4,42.4,42.4,82,82,82,29.96,29.96,0,0,2,0.00
2013-4-18,49.8,49.8,49.8,49.3,49.3,49.3,98,98,98,29.82,29.82,0,0,0,0.00
2013-4-19,49.8,49.8,49.8,49.0,49.0,49.0,97,97,97,29.79,29.79,0,0,0,0.00
2013-4-20,46.6,46.6,46.6,43.2,43.2,43.2,88,88,88,29.81,29.81,0,0,0,0.00
2013-4-21,41.7,41.7,41.7,40.7,40.7,40.7,96,96,96,29.83,29.83,0,0,0,0.00
2013-4-22,44.4,44.4,44.4,37.3,37.3,37.3,76,76,76,29.90,29.90,0,0,0,0.00
2013-4-23,48.7,48.7,48.7,35.9,35.9,35.9,61,61,61,29.74,29.74,0,0,0,0.00
2013-4-24,55.0,55.0,55.0,40.1,40.1,40.1,57,57,57,29.52,29.52,0,0,2,0.00
2013-4-25,52.7,52.7,52.7,47.4,47.4,47.4,82,82,82,29.66,29.66,0,0,1,0.00
2013-4-26,55.9,55.9,55.9,39.0,39.0,39.0,53,53,53,29.72,29.72,0,0,2,0.00
2013-4-27,52.5,52.5,52.5,48.8,48.8,48.8,87,87,87,29.75,29.75,0,0,0,0.00
2013-4-28,54.5,54.5,54.5,47.4,47.4,47.4,77,77,77,29.57,29.57,1,1,3,0.00
2013-4-29,40.8,40.8,40.8,36.4,36.4,36.4,84,84,84,29.74,29.74,0,0,1,0.00
2013-4-30,41.9,41.9,41.9,35.2,35.2,35.2,77,77,77,29.97,29.97,0,0,2,0.00
2013-5-1,50.5,50.5,50.5,40.4,40.4,40.4,68,68,68,29.98,29.98,0,0,0,0.00
2013-5-2,57.9,57.9,57.9,38.9,38.9,38.9,49,49,49,29.77,29.77,0,0,2,0.00
2013-5-3,58.6,58.6,58.6,43.9,43.9,43.9,58,58,58,29.63,29.63,0,0,2,0.00
2013-5-4,63.0,63.0,63.0,-19.3,-19.3,-19.3,3,3,3,31.00,31.00,0,0,0,0.00
2013-5-5,61.0,61.0,61.0,45.2,45.2,45.2,56,56,56,29.27,29.27,0,0,0,0.00
2013-5-6,57.2,57.2,57.2,50.4,50.4,50.4,78,78,78,29.36,29.36,0,0,0,0.00
2013-5-7,52.7,52.7,52.7,49.5,49.5,49.5,89,89,89,29.53,29.53,0,0,0,0.00
2013-5-8,53.2,53.2,53.2,50.7,50.7,50.7,91,91,91,29.66,29.66,0,0,0,0.00
2013-5-9,57.7,57.7,57.7,52.3,52.3,52.3,82,82,82,29.63,29.63,0,0,0,0.00
2013-5-10,61.9,61.9,61.9,52.8,52.8,52.8,72,72,72,29.68,29.68,0,0,2,0.00
2013-5-11,64.9,64.9,64.9,59.3,59.3,59.3,82,82,82,29.56,29.56,0,0,3,0.09
2013-5-12,58.8,58.8,58.8,58.5,58.5,58.5,99,99,99,29.59,29.59,0,0,2,0.04
2013-5-13,53.2,50.7,48.7,45.3,44.7,44.1,84,80,73,29.74,29.71,0,0,2,0.06
2013-5-14,51.6,51.6,51.6,45.0,45.0,45.0,78,78,78,29.62,29.62,0,0,0,0.00
2013-5-15,54.1,54.1,54.1,52.2,52.2,52.2,93,93,93,29.53,29.53,0,0,2,0.00
2013-5-16,52.3,52.3,52.3,52.1,52.1,52.1,99,99,99,29.50,29.50,0,0,0,0.00
2013-5-17,53.1,53.1,53.1,52.8,52.8,52.8,99,99,99,29.60,29.60,0,0,0,0.00
2013-5-18,51.6,51.6,51.6,51.3,51.3,51.3,99,99,99,29.79,29.79,0,0,0,0.00
2013-5-19,49.5,49.5,49.5,46.4,46.4,46.4,89,89,89,29.85,29.85,0,0,2,0.00
2013-5-20,55.2,55.2,55.2,49.5,49.5,49.5,81,81,81,29.41,29.41,0,0,2,0.00
2013-5-21,44.1,44.1,44.1,43.8,43.8,43.8,99,99,99,29.47,29.47,0,0,1,0.00
2013-5-22,46.6,46.6,46.6,46.3,46.3,46.3,99,99,99,29.45,29.45,1,1,3,0.09
2013-5-23,47.3,47.3,47.3,47.0,47.0,47.0,99,99,99,29.49,29.49,1,1,3,0.04
2013-5-24,49.5,49.5,49.5,49.2,49.2,49.2,99,99,99,29.58,29.58,0,0,0,0.00
2013-5-25,54.0,54.0,54.0,51.4,51.4,51.4,91,91,91,29.43,29.43,0,0,0,0.00
2013-5-26,56.3,56.3,56.3,49.9,49.9,49.9,79,79,79,29.50,29.50,0,0,1,0.00
2013-5-27,54.1,54.1,54.1,51.3,51.3,51.3,90,90,90,29.35,29.35,0,0,2,0.00
2013-5-28,52.3,52.3,52.3,50.1,50.1,50.1,92,92,92,29.26,29.26,0,0,0,0.06
2013-5-29,60.6,56.1,51.6,51.9,50.7,49.4,92,82,73,29.56,29.44,0,0,2,0.01
2013-5-30,52.0,52.0,52.0,51.7,51.7,51.7,99,99,99,29.77,29.77,0,0,0,0.00
2013-5-31,53.2,53.2,53.2,48.5,48.5,48.5,84,84,84,29.74,29.74,0,0,0,0.00
2013-6-1,58.3,58.3,58.3,52.1,52.1,52.1,80,80,80,29.53,29.53,1,1,4,0.00
2013-6-2,53.4,53.4,53.4,50.3,50.3,50.3,89,89,89,29.59,29.59,0,0,2,0.00
2013-6-3,54.7,54.7,54.7,49.9,49.9,49.9,84,84,84,29.57,29.57,0,0,2,0.00
2013-6-4,65.3,65.3,65.3,55.3,55.3,55.3,70,70,70,29.50,29.50,1,1,4,0.00
2013-6-5,60.6,60.6,60.6,56.4,56.4,56.4,86,86,86,29.51,29.51,0,0,1,0.00
2013-6-6,58.8,58.8,58.8,47.5,47.5,47.5,66,66,66,29.55,29.55,1,1,4,0.00
2013-6-7,54.9,54.9,54.9,51.4,51.4,51.4,88,88,88,29.66,29.66,1,1,2,0.00
2013-6-8,56.7,56.7,56.7,50.6,50.6,50.6,80,80,80,29.60,29.60,0,0,2,0.00
2013-6-9,51.6,51.6,51.6,46.3,46.3,46.3,82,82,82,29.53,29.53,1,1,3,0.00
2013-6-10,53.8,53.8,53.8,46.4,46.4,46.4,76,76,76,29.50,29.50,0,0,2,0.00
2013-6-11,54.3,54.3,54.3,48.3,48.3,48.3,80,80,80,29.65,29.65,0,0,0,0.00
2013-6-12,53.2,53.2,53.2,53.0,53.0,53.0,99,99,99,29.67,29.67,0,0,0,0.00
2013-6-13,51.1,51.1,51.1,49.1,49.1,49.1,93,93,93,29.80,29.80,0,0,0,0.00
2013-6-14,52.5,52.5,52.5,50.3,50.3,50.3,92,92,92,29.49,29.49,0,0,0,0.00
2013-6-15,59.4,59.4,59.4,54.5,54.5,54.5,84,84,84,29.51,29.51,0,0,2,0.00
2013-6-16,60.6,60.6,60.6,55.1,55.1,55.1,82,82,82,29.60,29.60,0,0,2,0.00
2013-6-17,61.5,61.5,61.5,53.9,53.9,53.9,76,76,76,29.50,29.50,0,0,2,0.00
2013-6-18,56.3,56.3,56.3,54.9,54.9,54.9,95,95,95,29.47,29.47,0,0,0,0.00
2013-6-19,57.6,57.6,57.6,52.4,52.4,52.4,83,83,83,29.58,29.58,0,0,1,0.00
2013-6-20,56.7,56.7,56.7,51.2,51.2,51.2,82,82,82,29.64,29.64,0,0,2,0.00
2013-6-21,54.0,54.0,54.0,52.0,52.0,52.0,93,93,93,29.62,29.62,0,0,0,0.00
2013-6-22,64.6,64.6,64.6,57.2,57.2,57.2,77,77,77,29.34,29.34,0,0,0,0.00
2013-6-23,61.9,61.9,61.9,61.6,61.6,61.6,99,99,99,29.14,29.14,0,0,1,0.00
2013-6-24,58.5,58.5,58.5,57.0,57.0,57.0,95,95,95,29.19,29.19,0,0,0,0.01
2013-6-25,60.1,60.1,60.1,57.7,57.7,57.7,92,92,92,29.36,29.36,0,0,0,0.01
2013-6-26,63.1,63.1,63.1,60.5,60.5,60.5,91,91,91,29.56,29.56,0,0,0,0.00
2013-6-27,63.0,63.0,63.0,61.8,61.8,61.8,96,96,96,29.65,29.65,0,0,0,0.00
2013-6-28,68.9,68.9,68.9,60.6,60.6,60.6,75,75,75,29.58,29.58,0,0,2,0.00
2013-6-29,69.3,69.3,69.3,63.2,63.2,63.2,81,81,81,29.48,29.48,0,0,0,0.00
2013-6-30,92.4,81.7,72.3,71.8,68.1,64.5,77,64,50,29.42,29.32,4,2,5,0.02
2013-7-1,100.6,80.3,64.4,76.7,67.5,59.1,91,67,44,29.52,29.40,6,2,6,0.01
2013-7-2,93.0,76.1,60.1,71.7,64.1,57.4,96,69,44,29.59,29.51,7,2,7,0.00
2013-7-3,92.3,72.2,55.4,62.4,56.3,51.3,89,61,32,29.66,29.53,8,2,8,0.00
2013-7-4,83.1,66.1,52.5,63.0,55.9,51.1,97,72,45,29.66,29.54,8,2,8,0.00
2013-7-5,81.9,64.8,53.4,62.9,55.8,50.4,92,74,48,29.57,29.44,6,2,6,0.00
2013-7-6,86.2,66.7,52.3,65.8,57.7,50.7,97,75,49,29.61,29.33,6,2,6,0.00
2013-7-7,86.5,67.1,55.4,67.3,59.2,54.0,98,78,50,29.48,29.17,8,2,8,0.00
2013-7-8,90.0,69.9,54.7,67.6,59.3,52.7,94,72,44,29.60,29.13,6,2,6,0.00
2013-7-9,96.8,75.8,55.6,70.1,62.8,55.1,99,68,36,29.59,29.46,8,2,8,0.00
2013-7-10,88.5,69.1,54.5,63.9,56.8,49.5,93,68,40,29.59,29.38,8,3,8,0.00
2013-7-11,84.0,65.8,50.0,58.1,52.4,47.8,95,65,37,29.60,29.46,8,2,8,0.00
2013-7-12,79.9,63.9,46.9,59.9,53.2,45.0,96,70,47,29.62,29.50,9,2,9,0.00
2013-7-13,88.5,69.1,48.9,62.4,54.0,47.3,96,63,35,29.68,29.53,9,2,9,0.00
2013-7-14,94.1,72.6,51.1,65.0,55.0,10.5,95,59,5,30.24,29.46,9,2,9,0.00
2013-7-15,94.5,71.1,53.1,64.9,54.9,48.0,94,61,35,29.52,29.30,8,2,8,0.00
2013-7-16,101.3,77.1,58.1,67.4,59.2,50.3,82,57,23,29.47,29.27,6,1,6,0.00
2013-7-17,86.0,69.1,60.1,64.6,59.1,56.2,88,72,47,29.68,29.47,8,2,8,0.00
2013-7-18,88.0,69.6,52.7,64.9,59.4,52.3,99,74,42,29.72,29.57,7,2,7,0.00
2013-7-19,90.0,69.1,54.3,68.2,60.6,53.5,99,77,48,29.66,29.50,7,2,7,0.00
2013-7-20,88.7,67.2,55.8,68.4,59.9,54.3,98,80,50,29.60,29.44,7,2,7,0.00
2013-7-21,90.7,67.6,55.8,68.5,59.7,54.5,97,78,47,29.51,29.39,8,2,8,0.00
2013-7-22,90.9,69.9,57.6,66.4,60.6,55.7,96,75,42,29.56,29.45,6,2,6,0.00
2013-7-23,97.0,73.3,56.1,72.0,63.5,55.6,99,75,41,29.55,29.43,7,2,7,0.01
2013-7-24,97.0,74.5,54.5,69.5,61.9,53.6,99,69,36,29.55,29.46,7,2,7,0.00
2013-7-25,96.1,73.7,52.5,66.4,59.5,51.3,98,66,30,29.59,29.51,8,2,8,0.00
2013-7-26,95.4,72.6,53.8,65.9,57.4,51.4,96,63,34,29.66,29.55,8,2,8,0.00
2013-7-27,90.0,67.6,52.2,63.8,56.1,50.6,96,70,40,29.71,29.50,6,2,6,0.00
2013-7-28,83.7,62.7,51.4,63.6,55.1,49.8,96,78,49,29.57,29.48,8,2,8,0.00
2013-7-29,85.1,67.9,53.4,63.6,57.8,50.9,93,72,46,29.53,29.43,6,1,6,0.00
2013-7-30,90.0,69.4,53.6,67.5,59.4,52.8,99,74,42,29.65,29.53,6,1,6,0.00
2013-7-31,82.4,67.2,57.0,66.9,60.7,55.6,99,81,54,29.62,29.50,6,2,6,0.00
2013-8-1,70.0,61.9,57.0,62.7,58.9,55.1,99,90,73,29.61,29.55,4,1,4,0.01
2013-8-2,77.4,65.9,57.2,62.8,59.6,56.9,99,82,56,29.65,29.60,6,1,6,0.00
2013-8-3,88.9,67.9,57.2,67.1,61.3,56.6,99,82,48,29.62,29.47,6,1,6,0.00
2013-8-4,98.4,75.4,56.3,71.4,63.7,55.8,99,72,35,29.53,29.37,6,2,6,0.00
2013-8-5,97.2,75.6,56.1,72.3,63.2,54.5,99,70,36,29.51,29.39,7,2,7,0.02
2013-8-6,101.8,75.7,53.1,68.5,59.2,41.9,99,63,20,29.50,29.38,7,1,7,0.00
2013-8-7,94.5,73.2,55.0,68.1,61.1,54.4,99,70,39,29.55,29.44,6,1,6,0.00
2013-8-8,90.7,70.6,59.5,70.1,62.2,56.8,95,77,49,29.56,29.40,7,2,7,0.00
2013-8-9,87.6,69.5,56.7,69.9,61.9,55.1,97,78,53,29.45,29.35,5,1,5,0.01
2013-8-10,91.4,71.1,57.2,70.3,64.1,56.9,99,81,49,29.55,29.39,6,1,6,0.01
2013-8-11,82.0,67.4,59.2,67.3,61.3,56.9,94,82,58,29.58,29.48,4,1,4,0.00
2013-8-12,89.8,73.5,58.5,66.6,61.2,55.4,96,68,42,29.58,29.50,6,2,6,0.00
2013-8-13,95.7,71.9,52.5,66.8,57.9,51.7,99,67,25,29.61,29.41,6,1,6,0.00
2013-8-14,93.6,72.2,54.7,65.1,59.4,53.2,97,68,36,29.55,29.41,5,1,5,0.11
2013-8-15,86.4,72.9,63.5,80.6,65.8,61.3,99,79,58,29.60,29.44,4,1,4,0.06
2013-8-16,92.1,74.5,62.6,73.4,66.6,56.0,99,79,51,29.62,29.45,5,1,5,0.02
2013-8-17,93.2,73.2,57.9,67.7,61.7,55.4,96,71,42,29.59,29.51,7,2,7,0.00
2013-8-18,96.1,72.9,58.3,96.1,62.4,57.1,100,73,39,29.65,29.47,6,2,6,0.02
2013-8-19,93.7,76.2,58.6,67.2,62.0,54.5,94,65,39,29.63,29.55,8,3,8,0.00
2013-8-20,91.0,70.0,52.7,66.1,57.4,51.5,99,68,38,29.64,29.49,8,2,8,0.00
2013-8-21,97.7,74.0,51.8,66.8,58.2,49.3,94,61,35,29.51,29.34,7,2,7,0.00
2013-8-22,88.3,76.3,62.2,65.3,61.6,53.6,91,61,46,29.40,29.33,6,1,6,0.00
2013-8-23,86.7,69.2,60.3,67.1,61.3,59.0,97,78,46,29.45,29.36,6,1,6,0.02
2013-8-24,89.8,70.4,60.3,65.6,60.0,55.0,95,72,40,29.42,29.34,7,2,7,0.00
2013-8-25,81.2,63.7,54.9,67.9,59.6,54.2,99,87,59,29.57,29.39,4,0,4,0.04
2013-8-26,87.1,70.3,60.1,67.0,61.1,55.5,99,76,38,29.52,29.39,9,2,9,0.24
2013-8-27,90.7,71.9,61.3,71.4,65.0,61.1,99,82,48,29.47,29.29,4,1,4,0.02
2013-8-28,91.8,74.5,62.4,71.2,66.2,62.1,99,78,49,29.41,29.33,6,1,6,0.05
2013-8-29,86.9,71.0,64.6,76.5,67.2,61.9,99,89,56,29.58,29.33,9,1,9,0.32
2013-8-30,91.4,72.9,57.9,72.0,64.8,57.1,99,79,44,29.66,29.53,6,1,6,0.00
2013-8-31,99.7,73.3,54.7,71.6,62.4,54.4,99,73,37,29.55,29.30,6,1,6,0.00
2013-9-1,95.4,72.8,56.8,67.4,60.8,56.3,99,70,35,29.41,29.28,7,1,7,0.00
2013-9-2,92.7,72.9,60.6,70.0,62.5,51.7,98,72,45,29.62,29.36,6,1,6,0.01
2013-9-3,90.5,71.2,60.1,70.0,63.0,59.8,99,79,42,29.50,29.42,5,1,5,0.12
2013-9-4,77.7,67.3,59.7,67.3,63.3,59.3,99,88,69,29.56,29.47,4,0,4,0.00
2013-9-5,74.1,64.5,59.2,67.0,62.6,58.7,99,94,77,29.54,29.44,8,1,8,0.30
2013-9-6,71.6,63.2,56.5,67.5,61.9,56.2,99,96,80,29.63,29.51,5,1,5,1.02
2013-9-7,89.8,68.7,54.0,71.5,62.5,53.7,99,83,50,29.62,29.45,6,1,6,0.00
2013-9-8,93.7,72.0,56.3,72.4,64.3,56.0,99,80,48,29.58,29.48,6,1,6,0.00
2013-9-9,91.9,71.4,59.9,72.2,65.6,59.6,99,84,51,29.54,29.41,6,2,6,0.00
2013-9-10,101.7,75.0,58.6,75.9,66.7,58.4,99,79,43,29.43,29.28,4,1,4,0.00
2013-9-11,109.6,78.4,58.8,76.9,66.8,58.5,99,74,32,29.43,29.32,6,1,6,0.00
2013-9-12,93.6,70.2,59.5,73.0,64.4,59.3,99,84,49,29.51,29.38,4,1,4,0.00
2013-9-13,84.6,66.1,59.9,70.4,63.1,59.6,99,91,61,29.48,29.34,5,1,4,0.00
2013-9-14,90.9,69.9,61.9,73.0,65.6,46.6,99,88,54,29.36,29.19,4,0,4,0.01
2013-9-15,68.9,64.5,60.8,67.5,63.5,60.5,99,97,88,29.40,29.20,6,1,6,0.05
2013-9-16,74.8,64.6,58.6,67.6,61.6,58.4,99,90,71,29.48,29.37,5,1,5,0.02
2013-9-17,77.4,62.0,53.2,62.0,57.5,53.0,99,87,54,29.53,29.36,6,1,6,0.07
2013-9-18,85.3,61.5,46.9,62.2,55.2,46.7,99,83,45,29.60,29.50,4,0,5,0.01
2013-9-19,91.9,62.7,43.0,65.5,54.0,42.7,99,78,37,29.52,29.25,5,0,5,0.00
2013-9-20,83.5,62.4,48.6,63.7,56.0,48.3,99,82,48,29.28,29.14,7,1,7,0.00
2013-9-21,74.7,61.3,54.3,68.4,59.0,54.0,99,93,70,29.28,29.17,4,0,4,0.99
2013-9-22,61.5,57.3,54.1,61.1,56.6,53.7,99,98,82,29.38,29.17,13,2,13,0.47
2013-9-23,67.6,58.5,52.2,62.1,56.9,51.7,99,95,79,29.50,29.02,6,1,6,0.15
2013-9-24,67.3,55.8,50.2,62.5,54.0,49.9,99,94,72,29.50,29.36,6,1,6,0.32
2013-9-25,68.4,54.5,47.7,60.2,51.9,47.4,99,92,65,29.55,29.35,5,1,5,0.01
2013-9-26,72.0,55.4,45.0,62.6,51.6,44.7,99,89,59,29.68,29.53,6,0,6,0.02
2013-9-27,56.8,52.7,45.3,56.6,52.3,45.1,99,99,95,29.68,29.36,8,2,8,0.39
2013-9-28,66.0,58.3,52.5,64.2,57.9,52.2,99,99,92,29.42,28.95,14,4,14,2.39
2013-9-29,56.8,54.0,49.8,56.6,53.7,49.6,100,99,99,29.17,28.84,13,4,13,1.24
2013-9-30,65.3,54.0,49.3,62.6,52.7,49.0,100,96,74,29.50,29.08,8,2,8,0.54
2013-10-1,68.7,53.6,49.1,61.0,51.3,47.4,100,93,65,29.69,29.47,6,1,6,0.21
2013-10-2,57.6,50.9,49.1,54.6,49.9,47.7,100,96,84,29.73,29.57,4,0,4,0.18
2013-10-3,69.4,53.5,50.7,59.4,51.2,49.3,100,93,63,29.96,29.62,4,0,4,0.00
2013-10-4,77.5,57.8,51.1,62.1,53.7,41.6,100,88,56,29.96,29.85,2,0,2,0.06
2013-10-5,87.1,63.9,60.3,67.1,57.0,35.8,100,82,35,29.85,29.63,2,0,2,0.02
2013-10-6,85.5,67.9,53.8,67.1,59.2,43.5,100,78,35,29.65,29.02,7,0,7,0.02
2013-10-7,70.7,56.4,51.1,60.0,51.8,47.4,99,85,54,29.64,29.47,6,1,6,0.27
2013-10-8,64.9,50.5,39.4,60.6,48.9,39.1,99,94,80,29.65,29.48,6,1,6,0.37
2013-10-9,66.9,47.6,35.4,53.7,44.1,35.2,99,89,57,29.62,29.46,4,0,4,0.01
2013-10-10,64.4,52.1,42.1,53.0,48.7,41.8,99,89,65,29.61,29.45,6,0,6,0.01
2013-10-11,63.9,53.0,46.8,55.5,49.9,45.0,99,90,69,29.65,29.58,4,0,4,0.01
2013-10-12,61.5,50.1,41.4,54.6,48.5,40.9,99,95,75,29.70,29.56,2,0,2,0.07
2013-10-13,71.6,50.3,39.4,56.4,46.4,38.9,99,88,54,29.83,29.67,6,1,6,0.01
2013-10-14,78.3,50.9,36.3,56.9,45.1,36.1,99,84,42,29.89,29.80,4,0,4,0.00
2013-10-15,82.2,52.5,36.7,58.0,43.9,36.4,99,78,28,29.86,29.63,6,0,6,0.00
2013-10-16,74.8,51.1,36.9,56.7,45.0,36.6,99,83,43,29.69,29.61,4,0,2,0.00
2013-10-17,76.3,53.2,42.3,58.9,48.6,41.7,99,87,52,29.75,29.65,4,0,4,0.00
2013-10-18,84.9,53.3,35.8,60.9,46.1,35.5,99,81,36,29.70,29.58,4,0,4,0.00
2013-10-19,79.9,51.7,36.7,58.2,46.1,36.4,99,85,42,29.66,29.59,2,0,2,0.00
2013-10-20,76.6,49.6,41.4,60.4,47.1,41.1,99,92,56,29.67,29.55,4,0,4,0.00
2013-10-21,86.0,56.7,44.1,63.5,51.4,43.8,99,85,44,29.61,29.48,2,0,2,0.00
2013-10-22,87.6,55.5,39.6,63.2,49.4,39.3,99,84,42,29.61,29.45,4,0,4,0.00
2013-10-23,84.2,54.9,39.0,63.7,49.3,38.8,99,85,43,29.51,29.43,4,0,4,0.00
2013-10-24,77.4,53.7,45.1,61.2,50.7,44.9,99,91,56,29.65,29.49,4,0,4,0.09
2013-10-25,59.9,52.2,46.0,54.5,50.7,45.2,99,95,81,29.77,29.61,4,0,4,0.01
2013-10-26,70.3,52.8,43.9,57.2,49.0,42.8,99,88,60,29.80,29.66,5,0,5,0.02
2013-10-27,64.8,49.9,42.3,56.6,47.2,41.6,99,91,63,29.68,29.32,6,1,6,0.33
2013-10-28,72.7,48.2,35.4,57.5,41.0,33.1,99,80,37,29.45,29.32,2,0,2,0.01
2013-10-29,71.8,44.1,29.3,52.8,36.5,28.8,99,79,38,29.56,29.43,4,0,4,0.00
2013-10-30,67.3,45.2,29.5,50.1,39.1,29.2,99,82,46,29.70,29.55,4,0,5,0.01
2013-10-31,60.6,52.6,47.7,54.2,50.4,46.3,99,93,76,29.80,29.65,5,0,5,0.06
2013-11-1,67.3,52.4,46.2,59.2,50.6,46.0,99,94,68,29.80,29.33,4,0,4,0.25
2013-11-2,59.2,50.6,43.0,54.5,47.3,40.1,99,89,63,29.63,29.21,9,2,9,0.76
2013-11-3,59.7,45.9,39.4,48.7,43.2,37.8,99,91,64,29.65,29.53,6,1,6,0.07
2013-11-4,48.0,45.9,43.5,47.8,45.7,43.3,99,99,99,29.68,29.60,6,0,6,0.47
2013-11-5,54.0,49.6,46.2,53.7,49.3,45.8,99,99,99,29.77,29.59,6,1,6,0.13
2013-11-6,54.5,51.0,48.2,54.2,50.6,32.9,99,99,47,29.81,29.44,2,0,3,0.43
2013-11-7,56.7,50.8,46.2,56.4,49.5,45.7,99,95,82,29.64,29.34,9,3,9,0.45
2013-11-8,55.6,48.1,41.5,51.1,46.6,41.1,99,95,81,29.70,29.61,6,0,5,0.00
2013-11-9,50.9,45.1,39.4,49.7,44.4,38.9,99,97,91,29.64,29.54,2,0,1,0.01
2013-11-10,66.9,49.4,42.1,55.6,46.9,41.8,99,92,64,29.68,29.55,2,0,1,0.00
2013-11-11,71.6,50.4,39.9,59.4,45.9,39.7,99,86,54,29.66,29.52,4,0,4,0.01
2013-11-12,56.3,51.3,46.8,56.0,50.8,27.5,99,98,90,29.95,29.48,4,0,4,0.30
2013-11-13,66.6,50.4,41.0,58.1,48.6,40.6,99,94,71,30.00,29.78,4,0,4,0.00
2013-11-14,52.0,46.7,40.3,51.5,46.3,40.0,99,98,94,29.80,29.58,2,0,2,0.14
2013-11-15,50.0,45.2,39.2,48.2,44.7,38.9,99,98,92,29.79,29.00,10,2,10,0.13
2013-11-16,52.0,46.4,44.1,51.7,43.7,41.1,99,90,85,29.37,29.00,9,1,9,0.08
2013-11-17,57.9,50.3,43.3,50.9,46.9,42.2,98,88,76,29.49,29.34,8,2,8,0.00
2013-11-18,53.2,51.8,50.2,52.3,48.9,45.8,99,90,79,29.47,29.20,15,3,15,0.50
2013-11-19,55.9,47.5,33.4,55.4,45.7,31.1,99,93,82,29.53,29.19,9,2,9,0.27
2013-11-20,56.7,35.5,26.6,44.3,31.9,25.6,99,88,58,29.97,29.52,4,0,4,0.00
2013-11-21,63.3,35.7,24.6,39.9,28.2,22.6,100,78,29,30.10,29.44,4,0,2,0.01
2013-11-22,32.2,32.2,32.2,32.2,31.8,27.3,100,98,82,30.08,29.90,0,0,0,0.00
2013-11-23,32.2,32.2,32.2,32.2,32.2,32.2,100,100,100,30.08,29.67,0,0,0,0.00
2013-11-24,32.2,32.2,32.2,32.2,32.2,32.2,100,100,100,29.90,29.68,0,0,0,0.00
2013-11-25,32.2,32.2,32.2,32.2,32.2,32.2,100,100,100,29.81,29.68,0,0,0,0.00
2013-11-26,32.2,32.2,32.2,32.2,32.2,32.2,100,100,100,29.81,29.55,0,0,0,0.00
2013-11-27,32.2,32.2,32.2,32.2,32.2,32.2,100,100,100,29.77,29.54,0,0,0,0.00
2013-11-28,52.3,33.6,28.2,32.2,29.1,-0.6,100,86,26,29.74,29.54,1,0,0,0.00
2013-11-29,48.9,36.8,27.0,34.4,27.6,20.1,78,70,55,29.88,29.20,2,0,2,0.02
2013-11-30,52.5,45.5,39.4,43.4,36.2,32.3,85,70,51,29.90,29.65,4,0,4,0.30
2013-12-1,55.2,51.7,45.1,49.8,47.1,40.6,87,84,80,29.72,29.41,13,3,13,1.07
2013-12-2,52.9,40.3,31.6,46.3,33.1,25.6,87,76,51,29.56,29.41,8,1,8,0.13
2013-12-3,52.5,35.2,23.2,37.6,22.0,8.3,84,62,21,29.80,29.55,7,1,6,0.01
2013-12-4,48.4,27.2,16.2,25.6,8.6,-6.4,75,50,12,29.86,29.79,6,0,6,0.00
2013-12-5,37.8,23.3,12.9,19.4,8.6,4.0,70,55,27,29.82,29.65,2,0,2,0.00
2013-12-6,32.4,26.1,19.2,11.7,2.4,-5.7,57,37,20,29.67,29.49,15,3,15,0.00
2013-12-7,41.5,21.0,8.6,2.3,-9.5,-22.5,52,28,10,29.95,29.62,6,1,6,0.00
2013-12-8,39.4,17.0,6.6,4.5,-1.3,-7.2,60,46,17,30.11,29.94,4,0,4,0.00
2013-12-9,28.6,24.1,10.9,16.4,8.0,0.1,66,51,36,30.13,30.03,2,0,2,0.00
2013-12-10,41.7,30.0,25.7,24.9,19.8,14.8,78,66,47,30.06,29.90,2,0,1,0.01
2013-12-11,43.2,29.0,24.1,30.8,22.1,17.9,78,75,59,29.91,29.70,2,0,2,0.01
2013-12-12,36.7,29.7,20.7,32.3,24.2,14.3,84,80,62,29.72,29.61,2,0,2,0.22
2013-12-13,46.2,41.3,36.7,42.6,37.3,32.3,87,86,84,29.95,29.72,2,0,2,0.05
2013-12-14,42.1,40.0,38.5,38.6,36.4,34.7,88,87,86,29.97,29.87,5,0,5,0.00
2013-12-15,46.2,42.2,38.3,42.7,38.6,34.8,90,87,84,30.00,29.93,2,0,1,0.04
2013-12-16,44.2,41.6,38.7,40.8,38.4,28.6,89,88,67,29.99,29.50,4,0,4,0.01
2013-12-17,39.6,37.6,36.0,36.6,34.4,22.1,89,88,54,29.77,29.67,4,0,4,0.02
2013-12-18,43.0,37.5,29.8,39.2,34.0,25.4,89,87,83,29.69,29.55,2,0,2,0.06
2013-12-19,37.8,30.6,25.2,33.2,26.2,21.0,85,84,81,29.85,29.62,2,0,2,0.01
2013-12-20,43.3,35.7,30.2,40.6,32.3,25.9,90,87,84,29.74,29.36,6,0,6,0.26
2013-12-21,62.4,45.5,41.4,51.5,41.6,24.7,92,87,66,29.75,29.42,2,0,2,0.08
2013-12-22,52.3,47.5,44.8,48.2,44.5,42.1,92,89,84,29.86,29.72,4,0,3,0.11
2013-12-23,50.7,45.0,31.5,48.2,42.0,27.8,91,89,86,30.11,29.79,5,0,5,0.32
2013-12-24,40.1,34.8,28.9,38.0,32.0,9.9,92,89,86,30.13,30.00,2,0,2,0.09
2013-12-25,40.1,34.7,31.8,37.5,32.3,20.6,92,91,88,30.01,29.75,2,0,2,0.00
2013-12-26,38.7,33.7,31.6,36.3,31.2,29.2,92,90,89,29.92,29.73,1,0,1,0.01
2013-12-27,45.1,34.8,32.0,34.9,32.3,29.7,91,90,88,29.94,29.71,2,0,2,0.00
2013-12-28,47.5,40.0,36.5,41.8,36.2,33.8,92,86,76,30.02,29.91,2,0,2,0.00
2013-12-29,41.5,37.7,34.7,36.0,33.3,30.5,87,84,78,29.97,29.76,2,0,2,0.00
2013-12-30,43.0,37.8,33.3,38.2,33.2,28.9,88,84,75,29.81,29.69,4,0,4,0.01
2013-12-31,48.2,41.9,35.8,42.5,37.4,31.7,91,84,73,29.86,29.73,0,0,0,0.01
2014-1-1,44.2,40.1,34.9,40.1,36.5,31.4,91,87,82,29.98,29.75,0,0,0,0.02
2014-1-2,54.0,41.0,34.3,41.6,34.8,30.9,91,79,52,29.78,29.52,6,0,6,0.12